Location: ?????
(37.7324°N, 23.9257°E)
Time: 07:36:53
(UTC+00:00)

ATLAS 2AS CENTAUR R/B - Pass Details

Date: 29 November 2020
Orbit: 943 x 1268 km, 63.7° (Epoch: 16 January)

Event Time Altitude Azimuth Distance (km) Brightness Sun altitude
Exits shadow 04:15:37 12° 264° (W) 3,097 4.6 -12.4°
Maximum altitude 04:21:41 28° 318° (NW) 2,164 3.8 -11.3°
Drops below altitude 10° 04:28:17 10° 16° (NNE) 3,221 5.2 -10.1°
Sets 04:31:32 0° 27° (NNE) 4,157 5.9 -9.5°
